Погода в Балыктахе

Россия / Республика Саха (Якутия)     63°05′03″N   130°25′07″E
темп.,
°C
ветер,
м/с
пор.,
м/с
влажн.,
%
обл.,
%
осадки,
мм/ч
давл.,
гПа
погр.,
м
3 марта, ср
ср300:00−30зсз1299100 0.1 102329
03:00−31з1298100 0.2 102297
06:00−31зсз1298100 0.1 1022107
09:00−31з1397100 0.1 1020217
12:00−29з2394100 0.1 1020385
15:00−28зсз2493100 0.2 1018465
18:00−29зсз2498100 0.1 1018219
21:00−30зсз2698100 0.1 1017440
4 марта, чт
чт400:00−31з2698100 0.1 1017375
03:00−32з2698100 0.2 1016375
06:00−32з2698100 0.1 1016404
09:00−32зсз3694100 0.2 1016500
12:00−31зсз3592100 0.1 1017497
15:00−31зсз3692100 0.1 1018480
18:00−33зсз3795100 0.0 1020369
21:00−38зсз389791 0.1 1022155
5 марта, пт
пт500:00−39з369741 0.0 1023121
03:00−39з279762 0.0 1024172
06:00−40з279798 0.0 1025176
09:00−38з369495 0.0 1025276
12:00−33з369294 0.0 1025395
15:00−30з379196 0.0 1025463
18:00−33з3896100 0.0 1026214
21:00−35з3109685 0.0 1026303
6 марта, сб
сб600:00−36з3109663 0.0 1025278
03:00−36з389654 0.0 1025200
06:00−38з239729 0.0 102529
09:00−35з249553 0.0 1025194
12:00−30зсз238894 0.0 1025361
15:00−28з239196 0.0 1024374
18:00−32сз119769 0.0 102419
21:00−34с009834 0.0 102519
7 марта, вс
вс700:00−35зсз00990 0.0 102419
03:00−36зюз01990 0.0 102419
06:00−37юз00990 0.0 102419
09:00−33з00960 0.0 102469
12:00−27ююз018849 0.0 1023340
15:00−24юз018673 0.0 1022434
18:00−30вюв019698 0.0 102219
21:00−31в119694 0.0 102319